Location: Kerb�bon
(47.7970°N, 3.3487°W)
Time: 12:39:57
(UTC+00:00)

Daily predictions for brighter satellites

Satellite Brightness Start Highest point End
(mag) Time Altitude Azimuth Time Altitude Azimuth Time Altitude Azimuth
Cosmos 2084 3.9 20:09:58 10° S 20:13:44 35° ESE 20:17:37 10° NE
Cosmos 1503 Rocket 4.0 20:08:56 10° S 20:14:01 61° ESE 20:19:11 10° NNE
Cosmos 1151 Rocket 3.8 20:10:48 10° SSE 20:14:42 33° E 20:18:39 10° NNE
Ariane Rocket 3.1 20:15:57 10° SSE 20:21:00 90° WSW 20:26:07 10° NNW
Cosmos 1782 3.5 20:17:30 10° SSE 20:21:10 36° E 20:24:50 10° NNE
SOZ 4.5 20:21:48 10° WSW 20:25:03 82° NNW 20:27:14 10° ENE
Cosmos 1553 Rocket 4.4 20:19:36 10° SSW 20:25:43 69° WNW 20:32:00 10° N
ATLAS 5 CENTAUR R/B 2.6 20:20:29 10° NW 20:26:02 68° SW 20:32:36 10° SSE
USA 305 3.4 20:23:26 10° WNW 20:27:39 55° NNE 20:31:50 10° E
Resurs 01 Rocket 1.7 20:26:29 10° SSE 20:30:52 63° ENE 20:35:17 10° N
SJ-6B 4.1 20:28:13 10° SSW 20:31:54 40° W 20:35:43 10° NNW
Intercosmos 24 3.7 20:28:37 10° S 20:32:15 88° W 20:35:57 10° N
NOSS 3-4 (A) 4.5 20:26:36 10° NW 20:33:08 47° NE 20:40:24 10° ESE
NOSS 3-4 (C) 4.5 20:26:42 10° NW 20:33:14 47° NE 20:40:29 10° ESE
OBJECT-B 2.7 20:32:06 10° SSW 20:34:59 29° W 20:37:53 10° NNW
Cosmos 1812 4.0 20:32:33 10° SE 20:35:41 24° E 20:38:49 10° NE
IGS 5A 3.6 20:31:41 10° SSE 20:35:46 61° ENE 20:39:52 10° N
X-37B 2.0 20:36:02 10° W 20:38:45 26° SSW 20:41:05 12° SSE
USA 186 4.3 20:38:44 10° WSW 20:39:43 12° W 20:40:42 10° WNW
Cosmos 1666 4.1 20:37:47 10° NNE 20:40:47 22° ENE 20:43:16 13° ESE
Terra 3.6 20:37:50 10° E 20:40:57 18° ENE 20:44:05 10° NNE
NOSS 3-3 (A) 3.9 20:37:17 10° SSW 20:42:58 67° SE 20:49:29 10° NE
NOSS 3-3 (C) 3.9 20:37:24 10° SSW 20:43:05 66° ESE 20:49:35 10° NE
Cosmos 1833 Rocket 2.9 20:40:21 10° NNW 20:45:59 60° ENE 20:50:56 13° SE
ATLAS 2AS CENTAUR R/B 3.8 20:39:22 10° NW 20:46:22 39° NNE 20:52:53 10° E
USA 306 3.2 20:42:51 10° WNW 20:47:06 66° NNE 20:51:02 12° ESE
Cosmos 1354 Rocket 4.1 20:42:35 10° SSW 20:47:50 83° WNW 20:53:07 10° NNE
Cosmos 1515 Rocket 4.3 20:45:53 10° SSE 20:49:49 35° E 20:53:49 10° NNE
SPOT 5 4.1 20:47:38 12° ESE 20:51:38 31° ENE 20:56:14 10° N
Meteor 1-5 Rocket 4.4 20:47:35 10° N 20:52:50 50° ENE 20:57:12 14° SE
Cosmos 1633 Rocket 3.1 20:50:59 10° N 20:55:25 81° W 20:59:50 10° S
SPOT 1/Viking Rocket 3.7 20:52:17 12° SSE 20:57:01 64° ENE 21:02:09 10° N
Cosmos 1328 Rocket 3.5 21:01:11 10° S 21:05:37 88° ESE 21:10:03 10° N
Cosmos 1470 Rocket 3.6 21:04:15 10° N 21:08:46 82° E 21:12:28 15° SSE
CZ-4C R/B 3.1 21:02:20 10° NW 21:09:33 80° SW 21:16:26 16° SSE
Landsat 7 4.0 21:06:08 10° S 21:10:50 70° WSW 21:15:36 10° NNW
Cosmos 1500 3.1 21:07:18 10° N 21:11:04 83° W 21:14:01 16° S
SPOT 3 Rocket 3.9 21:06:56 10° S 21:12:01 62° WSW 21:17:09 10° NNW
USA 307 2.9 21:09:54 10° WNW 21:14:11 86° NNE 21:17:05 20° ESE
CARTOSAT-1 3.7 21:13:16 20° SE 21:16:08 58° ENE 21:20:23 10° N
ARIANE 5 R/B 2.6 21:15:27 20° SSE 21:18:23 66° ENE 21:22:41 10° N
Cosmos 1538 Rocket 4.0 21:14:54 10° NNW 21:20:19 88° ENE 21:24:07 20° SSE
Cosmos 1933 Rocket 3.5 21:18:33 10° N 21:22:55 75° E 21:25:43 21° SSE
USA 308 2.9 21:23:33 10° WNW 21:27:52 80° SSW 21:30:15 26° SE
Cosmos 2082 Rocket 2.3 21:22:31 10° NNW 21:28:08 67° ENE 21:31:44 23° SE
Spot 2 Rocket 3.5 21:24:51 19° SSE 21:28:33 88° ENE 21:33:36 10° NNW
Cosmos 1437 4.1 21:29:03 10° SW 21:31:41 33° WNW 21:34:19 10° N
Cosmos 2154 Rocket 4.3 21:26:51 10° N 21:33:02 52° ENE 21:36:54 23° SE
ERS-1 Rocket 3.0 21:30:09 23° SSE 21:33:16 67° ENE 21:38:16 10° N
Cosmos 1680 Rocket 4.2 21:31:11 10° NNW 21:36:19 45° ENE 21:39:16 23° ESE
SJ 16-02 1.3 21:32:52 12° SSW 21:37:01 76° ESE 21:41:28 10° NNE
COSMOS 2406 3.6 21:32:10 10° NW 21:37:45 59° WSW 21:41:39 20° S
BREEZE-M DEB (TANK) 1.1 21:36:05 10° WNW 21:38:07 75° NNE 21:38:35 47° E
Cosmos 2184 Rocket 3.9 21:34:05 10° N 21:40:21 82° E 21:44:35 22° SSE
USA 245 3.2 21:40:02 29° SW 21:40:31 33° W 21:42:38 10° NNW
Cosmos 1271 Rocket 2.7 21:40:32 24° S 21:42:51 76° E 21:46:52 10° NNE
Cosmos 2074 Rocket 4.0 21:37:20 10° N 21:43:42 89° E 21:48:07 21° S
CREW DRAGON DEMO-1 DEB 3.2 21:43:41 10° WNW 21:46:02 38° SW 21:46:02 38° SW
Nadezhda 1 Rocket 4.1 21:43:59 22° SSE 21:48:02 59° E 21:54:09 10° NNE
Meteor 2-6 Rocket 4.3 21:44:37 10° SSW 21:50:01 74° WNW 21:55:36 10° N
Cosmos 2278 Rocket 2.5 21:47:47 10° SW 21:53:25 70° WNW 21:59:07 10° NNE
Cosmos 1943 Rocket 3.2 21:54:26 25° ESE 21:55:24 26° ESE 21:59:59 10° NE
Meteor 1-27 Rocket 3.9 21:52:04 24° S 21:55:33 63° E 22:01:24 10° NNE
Cosmos 1818 4.4 21:54:22 10° NNW 21:59:39 45° NE 22:02:55 22° ESE
Cosmos 2369 Rocket 3.8 22:01:38 16° E 22:01:41 16° E 22:05:00 10° ENE
Cosmos 2084 Rocket 4.3 22:00:42 10° NNW 22:04:47 44° NE 22:06:47 26° E
Cosmos 1610 Rocket 4.4 22:00:39 10° N 22:06:50 86° E 22:10:10 29° S
USA 305 3.5 22:03:31 10° WNW 22:07:32 41° SW 22:08:26 36° S
Resurs 01 Rocket 4.2 22:05:09 10° SW 22:07:48 15° W 22:10:27 10° NW
Cosmos 2228 Rocket 3.1 22:07:20 29° SSW 22:09:36 82° W 22:14:06 10° N
BREEZE-M R/B 2.4 22:07:38 10° WNW 22:10:01 55° N 22:10:38 41° NE
Cosmos 1898 Rocket 3.7 22:10:32 34° SSE 22:12:31 53° ESE 22:17:42 10° NNE
Cosmos 923 Rocket 4.0 22:07:48 10° NNW 22:13:04 76° WSW 22:15:22 35° S
Gbstr 26 Del rocket 4.3 22:05:49 10° WNW 22:13:29 76° NNE 22:18:36 17° ESE
Cosmos 1666 4.3 22:13:07 10° NNW 22:16:20 28° W 22:18:07 19° SW
Terra 1.9 22:16:12 35° S 22:18:11 70° WSW 22:22:57 10° NNW
Meteor 1-11 Rocket 4.2 22:16:20 10° NNW 22:22:13 60° W 22:25:29 26° SSW
Cosmos 990 Rocket 3.9 22:19:50 30° SSW 22:22:30 78° ESE 22:27:46 10° NNE
Okean 1 4.0 22:23:54 36° E 22:23:58 36° E 22:27:39 10° NNE
Cosmos 1340 Rocket 2.7 22:19:57 10° N 22:24:03 85° ENE 22:24:53 56° SSE
NOSS 3-4 (A) 4.2 22:17:28 10° NW 22:24:18 56° WSW 22:28:10 29° S
NOSS 3-4 (C) 4.2 22:17:34 10° NW 22:24:25 56° WSW 22:28:16 29° S
Cosmos 44 3.4 22:20:39 10° NW 22:26:08 87° ENE 22:28:04 41° SE
ERBS 3.4 22:23:17 10° NW 22:26:25 38° NNE 22:27:12 33° ENE
USA 306 3.9 22:23:04 10° WNW 22:26:50 31° SW 22:27:06 31° SW
Cosmos 1862 Rocket 4.2 22:27:33 36° E 22:27:51 36° E 22:31:49 10° NNE
Cosmos 1833 Rocket 4.4 22:25:01 10° NW 22:29:27 24° WSW 22:32:38 15° SW
SPOT 5 3.9 22:26:51 24° SSW 22:29:30 43° W 22:34:33 10° NNW
Cosmos 2341 Rocket 4.1 22:23:36 10° N 22:30:02 72° E 22:32:47 36° SSE
Cosmos 1869 Rocket 4.2 22:27:50 10° NNW 22:32:01 48° W 22:33:30 33° SW
Cosmos 1743 2.6 22:31:05 10° N 22:34:58 88° W 22:35:25 68° S
ATLAS 2AS CENTAUR R/B 2.8 22:30:34 10° NW 22:37:56 72° SW 22:40:56 36° SSE
USA 215 4.2 22:32:11 10° E 22:38:19 45° NNE 22:44:29 10° NW
Cosmos 1536 3.8 22:37:01 10° NNW 22:40:50 41° W 22:41:52 34° SW
Cosmos 2218 Rocket 4.2 22:36:39 10° N 22:42:53 60° ENE 22:45:17 37° SE
Spot 4 4.4 22:42:00 39° ESE 22:43:19 49° ENE 22:48:01 10° N
Cosmos 1544 3.7 22:41:27 10° NNW 22:44:57 46° W 22:45:17 44° WSW
BREEZE M DEB (TANK) 4.1 22:46:15 10° W 22:46:43 13° W 22:46:43 13° W
Cosmos 1707 Rocket 3.7 22:49:38 48° SSW 22:50:44 71° W 22:55:09 10° N
Cosmos 2112 Rocket 4.4 22:46:25 10° NNW 22:51:40 55° WSW 22:53:15 40° SSW
Cosmos 2297 3.6 22:50:42 31° SSW 22:53:34 87° WNW 22:59:17 10° NNE
Cosmos 1975 3.1 22:52:33 10° N 22:56:28 54° ENE 22:56:35 53° E
DNEPR-1 R/B 4.0 22:54:02 34° SSW 22:56:35 77° SE 23:01:33 10° NE
RESURS DK-1 3.7 22:56:39 10° NNW 23:00:25 32° NE 23:01:28 28° E
ALOS 2 3.3 23:01:54 38° E 23:02:36 41° ENE 23:06:44 10° N
SL-8 Rocket 4.0 22:57:47 10° N 23:04:10 84° W 23:06:26 43° S
Cosmos 1238 Rocket 3.7 22:59:31 10° NNW 23:05:40 75° W 23:07:16 47° SSW
Cosmos 2082 Rocket 3.8 23:07:32 10° NW 23:11:42 21° W 23:13:35 18° SW
Cosmos 1461 3.0 23:11:46 69° SSE 23:12:06 73° SE 23:16:44 10° NE
Meteor 1-18 Rocket 4.1 23:10:52 50° S 23:12:26 82° E 23:18:02 10° NNE
Cosmos 1937 Rocket 3.7 23:11:18 37° SW 23:13:18 68° WNW 23:18:29 10° NNE
SJ 16-02 4.1 23:13:30 10° W 23:16:10 15° NW 23:18:51 10° NNW
Cosmos 1733 Rocket 3.6 23:16:37 10° NNW 23:20:44 44° W 23:21:13 42° WSW
Gblst 52 Del rocket 4.4 23:16:38 10° WNW 23:23:37 83° SSW 23:26:14 37° ESE
Cosmos 1048 Rocket 4.2 23:22:37 10° NNW 23:27:55 64° ENE 23:29:11 48° ESE
Cosmos 2242 Rocket 3.6 23:31:02 63° E 23:31:06 63° E 23:35:32 10° NNE
Cosmos 1908 Rocket 3.4 23:32:15 10° NNW 23:36:46 81° W 23:36:59 77° SW
ATLAS CENTAUR R/B 3.0 23:40:13 22° ENE 23:40:13 22° ENE 23:41:54 10° NE
Cosmos 1943 Rocket 2.7 23:35:53 27° SW 23:38:48 55° WNW 23:44:19 10° NNE
Thor Agena Rocket 4.1 23:36:29 10° NNE 23:41:30 43° E 23:42:03 42° ESE
Cosmos 1818 4.2 23:38:08 10° NW 23:43:11 38° WSW 23:43:32 38° SW
Cosmos 2298 Rocket 4.0 23:42:47 58° SE 23:43:21 62° ESE 23:48:35 10° NNE
Cosmos 2369 Rocket 2.1 23:43:23 51° SSW 23:44:55 86° WNW 23:50:37 10° NNE
BREEZE-M DEB (TANK) 4.0 23:31:04 10° WNW 23:45:40 72° SSW 23:47:07 49° SE
SL-27 R/B 3.4 23:47:16 10° NNW 23:49:44 43° N 23:49:44 43° N
